COSMOS 2251 DEB, 34972

Orbit data source: Space-Track

COSMOS 2251 DEB, 34972 is space debris in LEO originally from a launch on Wed, 16 Jun 1993 UTC launched from the Plesetsk Missile And Space Complex (PKMTR). The debris from Iridium 33, an American commercial communications satellite, has been tracked extensively since its accidental collision with the defunct Russian satellite Cosmos 2251 in 2009. This event, occurring at high speed in low Earth orbit (LEO), generated thousands of pieces of space debris, significantly increasing the risk of further collisions. The Iridium 33 debris cloud has impacted space traffic management and orbital debris mitigation strategies, making it a subject of ongoing study in space situational awareness.

Loading next visibility...
Identifier
34972, 1993-036AFB
Orbit
LEO
Country
Flag of CISCIS
Related business
Manufacturer
Unknown
Mission
Spacecraft
Bus & Motor
Unknown
Mass
Unknown
Launch date (UTC)
1993-06-16 (33 years ago)
Launch vehicle
Unknown
Launch site
Plesetsk Missile And Space Complex (PKMTR)
Object type
Payload
Rocket body
Debris
Shape & HBR
Unknown shape, 0.1 m
Radar Cross Section
Small (<0.1 m²)

Expand to show TLE details & history
Last TLE update: 21 hours ago

TLE from 21 hours ago
0 COSMOS 2251 DEB
1 34972U 93036AFB 26207.60994676  .00009290  00000-0  13101-2 0  9998
2 34972  73.9871 326.9776 0033529  63.7277 309.5918 14.76957247909810
Epoch: 2026-07-26T14:38Z
TLE epoch observation values (Epoch: 2026-07-26T14:38:19.400Z)
Latitude
12.47462°
Longitude
166.71176°
Altitude
625.892 km
Speed
7.555 km/s
True Right ascension
22h 02m 23s
True Declination
12° 24' 03"
Sunlit
Object was in full shadow at epoch
Visualization orbit readout
Latitude
Unknown
Longitude
Unknown
Altitude
Unknown
Speed
Unknown
Apparent Right ascension
Unknown
Apparent Declination
Unknown
Sunlit
N/A
Visualization observer readout
Local Sidereal Time
00:48:57
Azimuth
Unknown
Elevation
Unknown
Doppler factor
Unknown
Orbital elements
Apogee altitude
660.048 km
Perigee altitude
613.009 km
Semi-major axis
7,014.665 km
Eccentricity
0.00335
Inclination
73.9871°
RAAN
326.9776°
Arg. of periapsis
63.7277°
True anomaly
309.29493°
Mean anomaly
309.5918°
Eccentric anomaly
309.44344°
Mean motion
3.6943 °/min
Orbital period
97.45 mins
BSTAR
0.0013101
Loading maneuver chart data...
Computing Atmospheric mass density...

Documentation

Showing up to 5 results
|